Вернуться в каталог

THOR ABLESTAR R/B

АктивенPO
NORAD 669·ROCKET BODY·🇺🇸 United States

Запущен Sep 28, 1963 с Vandenberg Space Force Base

Loading…

Ближайшие Пролёты (ближайшие 24 часа)

TLE

СвежийSource: Space-Track

Эпоха: Sep 14, 2026, 03:22 UTC

1 00669U 63038A   26257.14087134  .00000044  00000-0  58147-4 0  9998
2 00669  89.9777 333.9721 0025043 218.0640 164.4729 13.46136629 91670

Отслеживайте THOR ABLESTAR R/B в реальном времени с AllMySat

Download on the App Store